Weather in Belyov

Russia / Tula Oblast     53°48′36″N   36°07′48″E
temp.,
°C
wind,
m/s
gust,
m/s
humid.,
%
clouds,
%
prec.,
mm/h
press.,
hPa
HPBL,
m
9 may, sun
sun900:00+6nw71195100 0.6 1004793
03:00+4nw71397100 4.0 1007950
06:00+3nw81497100 2.1 1010719
09:00+5nw81184100 2.2 10121051
12:00+6nw81179100 0.3 10151180
15:00+7nw7117093 0.5 10171404
18:00+9nw6106694 0.2 10191263
21:00+5wnw36785 0.3 102193
10 may, mon
mon1000:00+3nw412825 0.0 1023216
03:00+2nnw411844 0.0 1025203
06:00+2nnw39800 0.0 1027198
09:00+8n58590 0.0 1027649
12:00+12n79430 0.0 10271620
15:00+13nne79420 0.0 10261635
18:00+12nne695778 0.0 10261019
21:00+6nne4117635 0.0 1027195
11 may, tue
tue1100:00+6nne5137268 0.0 1026326
03:00+6nne5137631 0.0 1026330
06:00+7nne6147785 0.0 1026394
09:00+11ne712725 0.0 1025502
12:00+16ne811686 0.0 1024938
15:00+17ene71171100 0.0 10231472
18:00+15e61182100 0.8 1024849
21:00+10e349316 0.8 102570
12 may, wed
wed1200:00+8ese3692100 0.0 1026131
03:00+8sse3690100 0.0 1025132
06:00+7ne2596100 4.1 1025176
09:00+11e348169 4.2 1024663
12:00+15ese576044 0.1 10221658
15:00+14e787195 0.6 10211105
18:00+13e798479 0.4 1020825
21:00+10e5119179 0.6 1019387
13 may, thu
thu1300:00+9ese5139499 0.1 1019320
03:00+10se61389100 0.3 1019444
06:00+10sse51092100 0.2 1019407
09:00+10ese499597 0.9 1019334
12:00+17sse696862 0.2 10191433
15:00+19sse685973 0.4 10181673
18:00+18se5869100 0.1 1017592
21:00+14ese3784100 0.1 1017103